Regional Weather Roundup
Issued by NWS

Home | Current Version | Previous Version | Text Only | Print | Product List | Glossary Off
Versions: 1 2 3 4 5 6 7 8 9 10 11 12 13 14 15 16 17 18 19 20 21 22 23 24 25 26 27 28 29 30 31 32 33 34 35 36 37 38 39 40 41 42 43 44 45 46 47 48 49 50

000
ASUS43 KTOP 010608
RWRKS

WEATHER ROUNDUP FOR KANSAS
NATIONAL WEATHER SERVICE GOODLAND KS
100 AM CDT WED JUL 01 2015

NOTE:  "FAIR" INDICATES FEW OR NO CLOUDS BELOW 12,000 FEET WITH NO
SIGNIFICANT WEATHER AND/OR OBSTRUCTIONS TO VISIBILITY.

KSZ001>006-013>018-027>032-041>047-010700-
NORTHWEST KANSAS

CITY           SKY/WX    TMP DP  RH WIND       PRES   REMARKS
GOODLAND       CLOUDY    78  47  33 SW8       29.94
6HR MIN TEMP:  77; 6HR MAX TEMP:  94;

HAYS           PTCLDY    81  52  36 SW18      29.85R
HILL CITY      CLEAR     84  53  34 SW14G26   29.83
6HR MIN TEMP:  84; 6HR MAX TEMP: 103;

RUSSELL        PTCLDY    83  56  39 SW18      29.82
6HR MIN TEMP:  83; 6HR MAX TEMP: 100;

$$

KSZ061>065-074>080-084>089-010700-
SOUTHWEST KANSAS

CITY           SKY/WX    TMP DP  RH WIND       PRES   REMARKS
DODGE CITY     CLEAR     75  56  51 SW15      29.93
6HR MIN TEMP:  75; 6HR MAX TEMP:  93;

ELKHART          N/A     74  51  44 S12         N/A
GARDEN CITY    CLEAR     75  56  51 S13       29.93
6HR MIN TEMP:  74; 6HR MAX TEMP:  93;

GREAT BEND     CLEAR     82  57  42 SW18G25   29.86S
LIBERAL        CLEAR     73  55  53 S13       29.99S
PRATT          CLEAR    N/A N/A N/A SW15      29.91F
$$

KSZ066>073-081>083-090>101-010700-
SOUTHEAST KANSAS

CITY           SKY/WX    TMP DP  RH WIND       PRES   REMARKS
CHANUTE        MOCLDY    80  69  69 S12       29.88
6HR MIN TEMP:  79; 6HR MAX TEMP:  89;

COFFEYVILLE    MOCLDY    81  72  74 S12       29.89
6HR MIN TEMP:  79; 6HR MAX TEMP:  92;

HUTCHINSON     CLEAR     84  58  40 SW15      29.85
6HR MIN TEMP:  84; 6HR MAX TEMP:  97;

MEDICINE LODGE   N/A     78  61  55 S9        29.90F
NEWTON         PTCLDY    82  55  39 SW15G21   29.88S
PARSONS        MOCLDY    79  71  76 S8        29.90
6HR MIN TEMP:  79; 6HR MAX TEMP:  91;

WICHITA INTL   MOCLDY    82  61  48 S16       29.86
6HR MIN TEMP:  81; 6HR MAX TEMP:  95;

WICHITA JABRA  PTCLDY    83  62  49 S17G26    29.86
6HR MIN TEMP:  82; 6HR MAX TEMP:  95;

WICHITA MCCONL PTCLDY    82  64  53 S20G25    29.87F
WINFIELD       MOCLDY    81  67  62 S14       29.90
6HR MIN TEMP:  81; 6HR MAX TEMP:  92;

$$

KSZ007>012-019>026-033>040-048>060-102>105-010700-
NORTHEAST KANSAS

CITY           SKY/WX    TMP DP  RH WIND       PRES   REMARKS
CONCORDIA      PTCLDY    75  68  78 E5        29.80
6HR MIN TEMP:  74; 6HR MAX TEMP:  94;

EMPORIA        PTCLDY    76  66  71 S12       29.84
6HR MIN TEMP:  76; 6HR MAX TEMP:  92;

LAWRENCE       CLOUDY    75  68  78 NE7       29.86
6HR MIN TEMP:  75; 6HR MAX TEMP:  84; 6HR PCP:  0.01;

MANHATTAN      CLEAR     76  68  76 E3        29.81
6HR MIN TEMP:  76; 6HR MAX TEMP:  93;

MARYSVILLE     CLOUDY    77  68  73 SE13G22   29.82F
OLATHE IND     CLOUDY    77  69  76 SE7       29.87
6HR MIN TEMP:  77; 6HR MAX TEMP:  86;

OLATHE EXE     CLOUDY    76  68  76 SE8       29.86
6HR MIN TEMP:  76; 6HR MAX TEMP:  84;

SALINA         CLEAR     84  57  39 S14       29.80
6HR MIN TEMP:  81; 6HR MAX TEMP:  99;

TOPEKA BILLARD MOCLDY    76  71  85 E7        29.84
6HR MIN TEMP:  76; 6HR MAX TEMP:  87; 6HR PCP:  0.01;

TOPEKA FORBES  MOCLDY    79  69  71 SE7       29.84
6HR MIN TEMP:  79; 6HR MAX TEMP:  87;

$$


USA.gov is the U.S. government's official web portal to all federal, state and local government web resources and services.